Location: Unspecified
(51.0950°N, 12.9690°E)
Time: 15:30:39
(UTC+00:00)

Cosmos 1825 Rocket - Pass Details

Date: 28 October 2021
Orbit: 603 x 631 km, 82.5° (Epoch: 26 November)

Event Time Altitude Azimuth Distance (km) Brightness Sun altitude
Rises 17:35:31 0° 350° (N) 2,874 7.1 -17.2°
Reaches altitude 10° 17:37:45 10° 351° (N) 1,964 6.2 -17.5°
Maximum altitude 17:42:06 81° 80° (E) 619 3.4 -18.2°
Drops below altitude 10° 17:46:24 10° 167° (SSE) 1,948 6.0 -18.9°
Sets 17:48:37 0° 169° (SSE) 2,848 6.8 -19.2°
